EN

Hourly Weather Bіlozіrka (Barmashove)

Today, 28 January, Thursday

Time Temperature Precipitation Wind Pressure Humidity
00:00 +4°C° 0 mm 3 mps 740 mmHg 93%
01:00 +4°C° 0 mm 3 mps 740 mmHg 92%
02:00 +4°C° 0 mm 3 mps 740 mmHg 90%
03:00 +4°C° 0 mm 4 mps 740 mmHg 91%
04:00 +4°C° 0 mm 4 mps 740 mmHg 92%
05:00 +3°C° 0 mm 5 mps 740 mmHg 92%
06:00 +3°C° 0 mm 5 mps 740 mmHg 93%
07:00 +2°C° 0 mm 6 mps 740 mmHg 93%
08:00 +2°C° 0 mm 6 mps 741 mmHg 93%
09:00 +2°C° 0 mm 7 mps 741 mmHg 90%
10:00 0°C° 0 mm 7 mps 741 mmHg 87%
11:00 0°C° 0 mm 7 mps 742 mmHg 84%
12:00 0°C° 0 mm 7 mps 742 mmHg 82%
13:00 0°C° 0 mm 7 mps 742 mmHg 81%
14:00 -1°C° 0 mm 7 mps 742 mmHg 79%
15:00 -1°C° 0 mm 7 mps 743 mmHg 83%
16:00 -2°C° 0 mm 6 mps 743 mmHg 87%
17:00 -2°C° 0 mm 6 mps 743 mmHg 91%
18:00 -2°C° 0.1 mm 6 mps 743 mmHg 92%
19:00 -3°C° 0.1 mm 7 mps 743 mmHg 93%
20:00 -3°C° 0.1 mm 7 mps 743 mmHg 94%
21:00 -4°C° 0.2 mm 8 mps 744 mmHg 93%
22:00 -4°C° 0.2 mm 9 mps 744 mmHg 93%
23:00 -5°C° 0.2 mm 9 mps 744 mmHg 92%

Tomorrow, 29 January, Friday

Time Temperature Precipitation Wind Pressure Humidity
00:00 -5°C° 0.3 mm 9 mps 744 mmHg 92%
01:00 -5°C° 0.3 mm 9 mps 745 mmHg 92%
02:00 -5°C° 0.3 mm 9 mps 745 mmHg 92%
03:00 -5°C° 0.1 mm 8 mps 746 mmHg 91%
04:00 -6°C° 0.1 mm 7 mps 746 mmHg 89%
05:00 -6°C° 0.1 mm 7 mps 746 mmHg 88%
06:00 -5°C° 0 mm 6 mps 747 mmHg 85%
07:00 -5°C° 0 mm 6 mps 747 mmHg 81%
08:00 -5°C° 0 mm 6 mps 748 mmHg 78%
09:00 -4°C° 0 mm 6 mps 748 mmHg 75%
10:00 -3°C° 0 mm 6 mps 748 mmHg 72%
11:00 -2°C° 0 mm 6 mps 748 mmHg 68%
12:00 -1°C° 0 mm 6 mps 748 mmHg 68%
13:00 -1°C° 0 mm 6 mps 747 mmHg 68%
14:00 +1°C° 0 mm 6 mps 747 mmHg 68%
15:00 +1°C° 0 mm 6 mps 747 mmHg 71%
16:00 0°C° 0 mm 5 mps 747 mmHg 73%
17:00 0°C° 0 mm 5 mps 746 mmHg 76%
18:00 -1°C° 0 mm 5 mps 746 mmHg 79%
19:00 -1°C° 0 mm 5 mps 746 mmHg 83%
20:00 -1°C° 0 mm 4 mps 747 mmHg 87%
21:00 -2°C° 0 mm 4 mps 747 mmHg 89%
22:00 -1°C° 0 mm 3 mps 747 mmHg 91%
23:00 -2°C° 0 mm 3 mps 747 mmHg 93%

Day after tomorrow, 30 January, Saturday

Time Temperature Precipitation Wind Pressure Humidity
00:00 -2°C° 0 mm 2 mps 747 mmHg 93%
01:00 -2°C° 0 mm 2 mps 747 mmHg 94%
02:00 -2°C° 0 mm 2 mps 747 mmHg 94%
03:00 0°C° 0 mm 1 mps 746 mmHg 94%
04:00 +1°C° 0 mm 1 mps 746 mmHg 94%
05:00 +1°C° 0 mm 1 mps 746 mmHg 94%
06:00 -1°C° 0 mm 2 mps 745 mmHg 94%
07:00 0°C° 0 mm 3 mps 745 mmHg 94%
08:00 0°C° 0 mm 3 mps 745 mmHg 94%
09:00 +1°C° 0 mm 4 mps 745 mmHg 91%
10:00 +2°C° 0 mm 5 mps 745 mmHg 87%
11:00 +5°C° 0 mm 5 mps 744 mmHg 83%
12:00 +5°C° 0 mm 5 mps 744 mmHg 84%
13:00 +6°C° 0 mm 5 mps 743 mmHg 85%
14:00 +6°C° 0 mm 5 mps 743 mmHg 86%
15:00 +4°C° 0.4 mm 6 mps 743 mmHg 88%
16:00 +4°C° 0.4 mm 6 mps 742 mmHg 90%
17:00 +3°C° 0.4 mm 7 mps 742 mmHg 92%
18:00 +4°C° 0.8 mm 8 mps 742 mmHg 91%
19:00 +4°C° 0.8 mm 8 mps 741 mmHg 90%
20:00 +4°C° 0.8 mm 8 mps 741 mmHg 89%
21:00 +4°C° 0.4 mm 7 mps 741 mmHg 90%
22:00 +3°C° 0.4 mm 7 mps 741 mmHg 92%
23:00 +3°C° 0.4 mm 6 mps 741 mmHg 94%

31 January, Sunday

Time Temperature Precipitation Wind Pressure Humidity
00:00 +2°C° 0 mm 6 mps 741 mmHg 92%
01:00 +1°C° 0 mm 6 mps 741 mmHg 91%
02:00 -1°C° 0 mm 6 mps 741 mmHg 90%
03:00 -1°C° 0 mm 6 mps 741 mmHg 84%
04:00 -1°C° 0 mm 7 mps 742 mmHg 79%
05:00 -1°C° 0 mm 7 mps 742 mmHg 73%
06:00 -2°C° 0 mm 7 mps 744 mmHg 72%
07:00 -3°C° 0 mm 7 mps 745 mmHg 71%
08:00 -4°C° 0 mm 7 mps 746 mmHg 70%
09:00 -3°C° 0 mm 7 mps 747 mmHg 67%
10:00 -2°C° 0 mm 6 mps 748 mmHg 65%
11:00 -2°C° 0 mm 6 mps 749 mmHg 62%
12:00 0°C° 0 mm 4 mps 749 mmHg 60%
13:00 +1°C° 0 mm 3 mps 750 mmHg 58%
14:00 +2°C° 0 mm 2 mps 750 mmHg 57%
15:00 +3°C° 0 mm 1 mps 751 mmHg 59%
16:00 +2°C° 0 mm 1 mps 751 mmHg 62%
17:00 +1°C° 0 mm 0 mps 751 mmHg 65%
18:00 +2°C° 0 mm 1 mps 751 mmHg 65%
19:00 +2°C° 0 mm 1 mps 752 mmHg 66%
20:00 +1°C° 0 mm 2 mps 752 mmHg 66%
21:00 +1°C° 0 mm 2 mps 752 mmHg 65%
22:00 0°C° 0 mm 3 mps 752 mmHg 64%
23:00 0°C° 0 mm 4 mps 752 mmHg 63%

1 February, Monday

Time Temperature Precipitation Wind Pressure Humidity
00:00 0°C° 0.1 mm 4 mps 751 mmHg 64%
01:00 0°C° 0.1 mm 5 mps 751 mmHg 65%
02:00 0°C° 0.1 mm 5 mps 750 mmHg 66%
03:00 0°C° 0 mm 5 mps 749 mmHg 69%
04:00 -1°C° 0 mm 6 mps 748 mmHg 72%
05:00 -1°C° 0 mm 6 mps 747 mmHg 76%
06:00 +1°C° 0.6 mm 6 mps 747 mmHg 82%
07:00 +2°C° 0.6 mm 7 mps 746 mmHg 88%
08:00 +3°C° 0.6 mm 7 mps 745 mmHg 94%
09:00 +4°C° 1 mm 8 mps 745 mmHg 93%
10:00 +5°C° 1 mm 8 mps 744 mmHg 92%
11:00 +6°C° 1 mm 9 mps 743 mmHg 90%
12:00 +6°C° 0.1 mm 9 mps 743 mmHg 87%
13:00 +5°C° 0.1 mm 10 mps 743 mmHg 84%
14:00 +5°C° 0.1 mm 10 mps 742 mmHg 81%
15:00 +5°C° 0 mm 10 mps 743 mmHg 80%
16:00 +3°C° 0 mm 10 mps 744 mmHg 79%
17:00 +2°C° 0 mm 10 mps 744 mmHg 78%
18:00 +1°C° 0 mm 9 mps 745 mmHg 80%
19:00 +1°C° 0 mm 9 mps 746 mmHg 81%
20:00 0°C° 0 mm 8 mps 747 mmHg 82%
21:00 0°C° 0 mm 7 mps 748 mmHg 84%
22:00 -1°C° 0 mm 6 mps 749 mmHg 85%
23:00 0°C° 0 mm 5 mps 750 mmHg 86%

2 February, Tuesday

Time Temperature Precipitation Wind Pressure Humidity
00:00 -1°C° 0 mm 4 mps 750 mmHg 88%
01:00 0°C° 0 mm 3 mps 751 mmHg 90%
02:00 -1°C° 0 mm 2 mps 751 mmHg 91%
03:00 -1°C° 0 mm 2 mps 751 mmHg 91%
04:00 -1°C° 0 mm 2 mps 752 mmHg 91%
05:00 -1°C° 0 mm 2 mps 752 mmHg 91%
06:00 -1°C° 0 mm 2 mps 753 mmHg 91%
07:00 +1°C° 0 mm 1 mps 753 mmHg 90%
08:00 0°C° 0 mm 0 mps 754 mmHg 89%
09:00 +1°C° 0 mm 0 mps 754 mmHg 83%
10:00 +2°C° 0 mm 0 mps 754 mmHg 77%
11:00 +3°C° 0 mm 0 mps 755 mmHg 71%
12:00 +5°C° 0 mm 1 mps 755 mmHg 66%
13:00 +6°C° 0 mm 1 mps 755 mmHg 62%
14:00 +7°C° 0 mm 1 mps 754 mmHg 57%
15:00 +6°C° 0 mm 1 mps 755 mmHg 60%
16:00 +6°C° 0 mm 1 mps 755 mmHg 64%
17:00 +5°C° 0 mm 1 mps 755 mmHg 67%
18:00 +5°C° 0 mm 1 mps 756 mmHg 68%
19:00 +4°C° 0 mm 1 mps 756 mmHg 70%
20:00 +4°C° 0 mm 1 mps 756 mmHg 72%
21:00 +4°C° 0 mm 1 mps 756 mmHg 73%
22:00 +4°C° 0 mm 1 mps 756 mmHg 74%
23:00 +3°C° 0 mm 1 mps 756 mmHg 76%
Show more

We Need Your Consent

Meteoprog and our Service Providers may store and access personal data such as cookies, device identifiers or other similar technologies on your device and process such data to personalise content and ads, as well as provide social media features and to analyse the traffic.

  • Store and/or access information on your device

    Cookies, device identifiers or other information can be stored or accessed on your device for the purposes indicated above.

  • Personalised ads and content, ad and content measurement, audience insights, and products development

    Ads and content can be personalised based on a profile. More data can be added to better personalise ads and content. Ad and content performance can be measured. Insights about the audience who saw the ads and content can be derived. Such data can be used to develop or improve user’s experience, systems and software.

By clicking ‘I Agree’ you will allow the use of indicated cookies, device identifiers, web beacons or other similar technologies. Your settings can be changed in the browser on your device.

For certain purposes, legitimate interests may be relied on, rather than consent. You can read more about this in our Privacy and Cookie Policy.